"read_dt","SO2 (ppb)","flags","PMT voltage (V)","lamp voltage (V)","lamp intensity (Hz)","internal temp (C)","react chamber temp (C)","sample flow (l/min)","pres (mmHg)","SO2 bkg (ppb)","SO2 coefficient"
2013-07-22 00:00:00,9930E-5,5C000000,-0724,0936,11247,028.1,045.3,0.395,741.7,01.18,0.508
2013-07-22 00:01:00,1957E-4,5C000000,-0724,0935,11188,028.1,045.3,0.394,741.8,01.18,0.508
2013-07-22 00:02:00,1492E-4,5C000000,-0724,0935,11178,028.1,045.3,0.394,741.8,01.18,0.508
2013-07-22 00:03:00,1836E-4,5C000000,-0724,0935,11115,028.1,045.3,0.394,741.8,01.18,0.508
2013-07-22 00:04:00,1876E-4,5C000000,-0724,0935,11206,028.0,045.3,0.395,741.8,01.18,0.508
2013-07-22 00:05:00,1834E-4,5C000000,-0724,0935,11152,028.0,045.3,0.394,741.8,01.18,0.508
2013-07-22 00:06:00,1878E-4,5C000000,-0724,0935,11114,028.0,045.3,0.394,741.7,01.18,0.508
2013-07-22 00:07:00,1654E-4,5C000000,-0724,0935,11142,028.0,045.3,0.395,741.8,01.18,0.508
2013-07-22 00:08:00,2248E-4,5C000000,-0724,0935,11084,028.0,045.3,0.395,741.7,01.18,0.508
2013-07-22 00:09:00,1703E-4,5C000000,-0724,0935,10964,028.0,045.3,0.394,741.8,01.18,0.508
2013-07-22 00:10:00,1456E-4,5C000000,-0724,0935,11165,028.0,045.3,0.394,741.7,01.18,0.508
2013-07-22 00:11:00,1990E-4,5C000000,-0724,0935,11191,028.0,045.3,0.395,741.7,01.18,0.508
2013-07-22 00:12:00,1154E-4,5C000000,-0724,0934,11158,028.0,045.3,0.395,741.8,01.18,0.508
2013-07-22 00:13:00,2180E-4,5C000000,-0724,0935,11116,028.0,045.3,0.394,741.8,01.18,0.508
2013-07-22 00:14:00,2099E-4,5C000000,-0724,0936,11235,028.0,045.3,0.394,741.8,01.18,0.508
2013-07-22 00:15:00,1908E-4,5C000000,-0724,0935,11198,027.9,045.3,0.395,741.8,01.18,0.508
2013-07-22 00:16:00,1514E-4,5C000000,-0724,0935,11224,028.0,045.3,0.395,741.8,01.18,0.508
2013-07-22 00:17:00,2056E-4,5C000000,-0724,0935,11222,028.0,045.3,0.394,741.8,01.18,0.508
2013-07-22 00:18:00,1264E-4,5C000000,-0724,0936,11244,027.9,045.3,0.394,741.8,01.18,0.508
2013-07-22 00:19:00,1455E-4,5C000000,-0724,0935,11158,027.9,045.3,0.395,741.8,01.18,0.508
2013-07-22 00:20:00,1733E-4,5C000000,-0724,0935,11232,027.9,045.3,0.395,741.8,01.18,0.508
2013-07-22 00:21:00,1520E-4,5C000000,-0724,0935,11230,027.9,045.3,0.395,741.8,01.18,0.508
2013-07-22 00:22:00,1970E-4,5C000000,-0724,0936,11058,027.9,045.3,0.394,741.8,01.18,0.508
2013-07-22 00:23:00,1076E-4,5C000000,-0724,0935,11212,027.9,045.3,0.395,741.9,01.18,0.508
2013-07-22 00:24:00,2384E-4,5C000000,-0724,0935,11146,027.9,045.3,0.395,741.9,01.18,0.508
2013-07-22 00:25:00,1082E-4,5C000000,-0724,0935,11139,027.9,045.3,0.395,741.8,01.18,0.508
2013-07-22 00:26:00,1636E-4,5C000000,-0724,0935,11159,027.9,045.3,0.394,741.9,01.18,0.508
2013-07-22 00:27:00,1835E-4,5C000000,-0724,0935,11223,027.9,045.3,0.395,741.9,01.18,0.508
2013-07-22 00:28:00,1697E-4,5C000000,-0724,0935,11119,027.9,045.3,0.395,741.9,01.18,0.508
2013-07-22 00:29:00,6126E-5,5C000000,-0724,0935,11081,027.9,045.3,0.395,741.9,01.18,0.508
2013-07-22 00:30:00,1466E-4,5C000000,-0724,0935,11128,027.9,045.3,0.394,741.9,01.18,0.508
2013-07-22 00:31:00,1821E-4,5C000000,-0724,0935,11196,027.9,045.3,0.395,741.9,01.18,0.508
2013-07-22 00:32:00,1821E-4,5C000000,-0724,0935,11194,027.9,045.3,0.395,741.9,01.18,0.508
2013-07-22 00:33:00,1751E-4,5C000000,-0724,0935,11141,027.9,045.3,0.395,741.9,01.18,0.508
2013-07-22 00:34:00,8138E-5,5C000000,-0724,0936,11247,027.9,045.3,0.394,741.9,01.18,0.508
2013-07-22 00:35:00,1195E-4,5C000000,-0724,0936,11041,027.9,045.3,0.395,741.9,01.18,0.508
2013-07-22 00:36:00,2275E-4,5C000000,-0724,0935,11260,027.9,045.3,0.395,742.0,01.18,0.508
2013-07-22 00:37:00,1003E-4,5C000000,-0724,0936,11067,027.9,045.3,0.395,742.1,01.18,0.508
2013-07-22 00:38:00,2061E-4,5C000000,-0724,0936,11272,027.9,045.3,0.395,742.0,01.18,0.508
2013-07-22 00:39:00,2234E-4,5C000000,-0724,0935,11132,027.9,045.3,0.395,741.9,01.18,0.508
2013-07-22 00:40:00,1751E-4,5C000000,-0724,0936,11189,027.8,045.3,0.395,742.0,01.18,0.508
2013-07-22 00:41:00,9376E-5,5C000000,-0724,0935,11285,027.9,045.3,0.395,741.9,01.18,0.508
2013-07-22 00:42:00,1205E-4,5C000000,-0724,0935,11230,027.8,045.3,0.395,742.1,01.18,0.508
2013-07-22 00:43:00,1715E-4,5C000000,-0724,0936,11262,027.8,045.3,0.395,742.0,01.18,0.508
2013-07-22 00:44:00,1447E-4,5C000000,-0724,0936,11227,027.8,045.3,0.395,742.0,01.18,0.508
2013-07-22 00:45:00,2205E-4,5C000000,-0724,0935,11213,027.9,045.3,0.395,742.0,01.18,0.508
2013-07-22 00:46:00,1879E-4,5C000000,-0724,0935,11157,027.9,045.3,0.395,742.1,01.18,0.508
2013-07-22 00:47:00,2581E-4,5C000000,-0724,0935,11180,027.8,045.3,0.395,742.1,01.18,0.508
2013-07-22 00:48:00,1913E-4,5C000000,-0724,0935,11266,027.8,045.3,0.395,742.2,01.18,0.508
2013-07-22 00:49:00,1259E-4,5C000000,-0724,0936,11192,027.8,045.4,0.395,742.1,01.18,0.508
2013-07-22 00:50:00,1200E-4,5C000000,-0724,0936,11178,027.8,045.3,0.395,742.2,01.18,0.508
2013-07-22 00:51:00,1364E-4,5C000000,-0724,0937,11113,027.8,045.3,0.395,742.2,01.18,0.508
2013-07-22 00:52:00,1578E-4,5C000000,-0724,0936,11295,027.8,045.3,0.395,742.1,01.18,0.508
2013-07-22 00:53:00,1814E-4,5C000000,-0724,0934,11078,027.8,045.3,0.395,742.1,01.18,0.508
2013-07-22 00:54:00,1741E-4,5C000000,-0724,0935,11155,027.8,045.3,0.395,742.1,01.18,0.508
2013-07-22 00:55:00,1097E-4,5C000000,-0724,0935,11046,027.8,045.3,0.395,742.2,01.18,0.508
2013-07-22 00:56:00,1800E-4,5C000000,-0724,0936,11066,027.8,045.3,0.395,742.2,01.18,0.508
2013-07-22 00:57:00,2199E-4,5C000000,-0724,0936,11152,027.8,045.3,0.395,742.2,01.18,0.508
2013-07-22 00:58:00,2705E-4,5C000000,-0724,0936,11217,027.8,045.3,0.395,742.2,01.18,0.508
2013-07-22 00:59:00,2074E-4,5C000000,-0724,0935,11159,027.8,045.3,0.395,742.1,01.18,0.508
2013-07-22 01:00:00,1117E-4,5C000000,-0724,0936,10883,027.8,045.4,0.395,742.1,01.18,0.508
2013-07-22 01:01:00,2169E-4,5C000000,-0724,0935,11270,027.8,045.3,0.395,742.2,01.18,0.508
2013-07-22 01:02:00,1512E-4,5C000000,-0724,0936,11161,027.8,045.3,0.395,742.2,01.18,0.508
2013-07-22 01:03:00,2419E-4,5C000000,-0724,0936,11238,027.8,045.3,0.395,742.2,01.18,0.508
2013-07-22 01:04:00,2094E-4,5C000000,-0724,0935,11239,027.8,045.3,0.395,742.2,01.18,0.508
2013-07-22 01:05:00,1424E-4,5C000000,-0724,0936,11107,027.9,045.3,0.395,742.1,01.18,0.508
2013-07-22 01:06:00,1860E-4,5C000000,-0724,0936,11052,027.8,045.3,0.395,742.2,01.18,0.508
2013-07-22 01:07:00,1800E-4,5C000000,-0724,0936,11064,027.8,045.3,0.395,742.1,01.18,0.508
2013-07-22 01:08:00,1452E-4,5C000000,-0724,0936,11253,027.8,045.3,0.395,742.2,01.18,0.508
2013-07-22 01:09:00,1465E-4,5C000000,-0724,0936,11150,027.8,045.3,0.395,742.2,01.18,0.508
2013-07-22 01:10:00,1288E-4,5C000000,-0724,0935,11169,027.8,045.3,0.395,742.2,01.18,0.508
2013-07-22 01:11:00,1575E-4,5C000000,-0724,0936,11242,027.8,045.3,0.395,742.2,01.18,0.508
2013-07-22 01:12:00,1442E-4,5C000000,-0724,0936,11190,027.9,045.3,0.395,742.2,01.18,0.508
2013-07-22 01:13:00,1076E-4,5C000000,-0724,0935,11152,027.8,045.3,0.395,742.2,01.18,0.508
2013-07-22 01:14:00,1564E-4,5C000000,-0724,0936,11191,027.8,045.3,0.395,742.2,01.18,0.508
2013-07-22 01:15:00,2439E-4,5C000000,-0724,0936,11169,027.8,045.3,0.395,742.2,01.18,0.508
2013-07-22 01:16:00,1885E-4,5C000000,-0724,0935,11209,027.8,045.3,0.395,742.2,01.18,0.508
2013-07-22 01:17:00,1283E-4,5C000000,-0724,0936,11226,027.8,045.3,0.395,742.3,01.18,0.508
2013-07-22 01:18:00,1724E-4,5C000000,-0724,0936,11158,027.9,045.3,0.395,742.2,01.18,0.508
2013-07-22 01:19:00,1970E-4,5C000000,-0724,0935,11153,027.8,045.3,0.395,742.3,01.18,0.508
2013-07-22 01:20:00,1024E-4,5C000000,-0724,0935,11311,027.8,045.3,0.395,742.2,01.18,0.508
2013-07-22 01:21:00,2083E-4,5C000000,-0724,0936,11128,027.8,045.3,0.395,742.3,01.18,0.508
2013-07-22 01:22:00,1973E-4,5C000000,-0724,0935,11267,027.8,045.3,0.395,742.2,01.18,0.508
2013-07-22 01:23:00,1728E-4,5C000000,-0724,0936,11099,027.8,045.3,0.395,742.2,01.18,0.508
2013-07-22 01:24:00,2296E-4,5C000000,-0724,0935,11209,027.8,045.3,0.395,742.3,01.18,0.508
2013-07-22 01:25:00,2247E-4,5C000000,-0724,0935,11145,027.9,045.3,0.395,742.2,01.18,0.508
2013-07-22 01:26:00,2134E-4,5C000000,-0724,0935,11150,027.8,045.3,0.395,742.2,01.18,0.508
2013-07-22 01:27:00,9989E-5,5C000000,-0724,0935,10965,027.8,045.3,0.395,742.2,01.18,0.508
2013-07-22 01:28:00,1527E-4,5C000000,-0724,0936,11017,027.8,045.3,0.395,742.3,01.18,0.508
2013-07-22 01:29:00,1484E-4,5C000000,-0724,0936,11118,027.8,045.3,0.395,742.2,01.18,0.508
2013-07-22 01:30:00,1710E-4,5C000000,-0724,0936,11142,027.8,045.3,0.395,742.3,01.18,0.508
2013-07-22 01:31:00,1709E-4,5C000000,-0724,0936,11151,027.8,045.3,0.395,742.2,01.18,0.508
2013-07-22 01:32:00,1056E-4,5C000000,-0724,0935,11227,027.8,045.3,0.395,742.2,01.18,0.508
2013-07-22 01:33:00,1590E-4,5C000000,-0724,0936,11158,027.8,045.3,0.395,742.3,01.18,0.508
2013-07-22 01:34:00,1918E-4,5C000000,-0724,0936,11136,027.9,045.3,0.395,742.3,01.18,0.508
2013-07-22 01:35:00,2061E-4,5C000000,-0724,0935,11167,027.9,045.4,0.395,742.3,01.18,0.508
2013-07-22 01:36:00,2217E-4,5C000000,-0724,0936,11232,027.9,045.3,0.395,742.4,01.18,0.508
2013-07-22 01:37:00,2180E-4,5C000000,-0724,0935,11182,027.9,045.3,0.395,742.3,01.18,0.508
2013-07-22 01:38:00,1644E-4,5C000000,-0724,0936,11135,027.9,045.3,0.395,742.3,01.18,0.508
2013-07-22 01:39:00,2324E-4,5C000000,-0724,0936,11234,027.9,045.3,0.395,742.3,01.18,0.508
2013-07-22 01:40:00,2020E-4,5C000000,-0724,0937,11017,027.9,045.3,0.395,742.4,01.18,0.508
2013-07-22 01:41:00,3106E-4,5C000000,-0724,0935,11113,027.9,045.3,0.395,742.4,01.18,0.508
2013-07-22 01:42:00,2645E-4,5C000000,-0724,0936,11102,027.9,045.3,0.395,742.4,01.18,0.508
2013-07-22 01:43:00,9733E-5,5C000000,-0724,0936,11130,027.9,045.3,0.395,742.4,01.18,0.508
2013-07-22 01:44:00,1238E-4,5C000000,-0724,0936,11040,027.9,045.3,0.395,742.4,01.18,0.508
2013-07-22 01:45:00,2351E-4,5C000000,-0724,0937,11185,027.9,045.3,0.395,742.4,01.18,0.508
2013-07-22 01:46:00,1755E-4,5C000000,-0724,0936,11217,027.9,045.3,0.395,742.4,01.18,0.508
2013-07-22 01:47:00,1735E-4,5C000000,-0724,0935,11240,027.9,045.3,0.395,742.4,01.18,0.508
2013-07-22 01:48:00,1222E-4,5C000000,-0724,0935,11190,027.9,045.3,0.395,742.5,01.18,0.508
2013-07-22 01:49:00,1596E-4,5C000000,-0724,0936,11315,027.9,045.3,0.395,742.4,01.18,0.508
2013-07-22 01:50:00,1940E-4,5C000000,-0724,0936,11188,027.9,045.3,0.395,742.5,01.18,0.508
2013-07-22 01:51:00,1355E-4,5C000000,-0724,0936,11146,027.9,045.3,0.395,742.4,01.18,0.508
2013-07-22 01:52:00,2231E-4,5C000000,-0724,0935,11211,027.9,045.3,0.395,742.5,01.18,0.508
2013-07-22 01:53:00,2001E-4,5C000000,-0724,0937,10779,027.9,045.3,0.395,742.5,01.18,0.508
2013-07-22 01:54:00,2434E-4,5C000000,-0724,0937,11113,027.9,045.3,0.395,742.4,01.18,0.508
2013-07-22 01:55:00,1822E-4,5C000000,-0724,0937,11062,027.9,045.3,0.395,742.5,01.18,0.508
2013-07-22 01:56:00,1842E-4,5C000000,-0724,0935,11139,027.9,045.3,0.395,742.4,01.18,0.508
2013-07-22 01:57:00,1942E-4,5C000000,-0724,0937,11274,027.9,045.3,0.395,742.5,01.18,0.508
2013-07-22 01:58:00,2137E-4,5C000000,-0724,0936,11210,027.9,045.3,0.395,742.4,01.18,0.508
2013-07-22 01:59:00,2462E-4,5C000000,-0724,0936,11310,027.9,045.3,0.395,742.5,01.18,0.508
2013-07-22 02:00:00,2689E-4,5C000000,-0724,0936,11196,027.9,045.3,0.394,742.5,01.18,0.508
2013-07-22 02:01:00,1841E-4,5C000000,-0724,0936,11127,027.9,045.3,0.395,742.5,01.18,0.508
2013-07-22 02:02:00,2750E-4,5C000000,-0724,0937,11206,027.9,045.3,0.395,742.5,01.18,0.508
2013-07-22 02:03:00,1466E-4,5C000000,-0724,0936,11145,027.9,045.3,0.395,742.4,01.18,0.508
2013-07-22 02:04:00,2130E-4,5C000000,-0724,0936,11201,027.9,045.3,0.395,742.5,01.18,0.508
2013-07-22 02:05:00,1252E-4,5C000000,-0724,0936,11142,028.0,045.3,0.395,742.5,01.18,0.508
2013-07-22 02:06:00,2136E-4,5C000000,-0724,0937,11301,028.0,045.3,0.395,742.5,01.18,0.508
2013-07-22 02:07:00,1838E-4,5C000000,-0724,0936,11276,028.0,045.3,0.394,742.5,01.18,0.508
2013-07-22 02:08:00,1766E-4,5C000000,-0724,0936,11192,028.0,045.3,0.395,742.4,01.18,0.508
2013-07-22 02:09:00,1864E-4,5C000000,-0724,0936,11132,028.0,045.3,0.395,742.5,01.18,0.508
2013-07-22 02:10:00,2018E-4,5C000000,-0724,0936,11347,028.0,045.3,0.395,742.5,01.18,0.508
2013-07-22 02:11:00,2655E-4,5C000000,-0724,0936,11254,028.0,045.3,0.395,742.5,01.18,0.508
2013-07-22 02:12:00,1780E-4,5C000000,-0724,0937,11222,028.0,045.3,0.395,742.5,01.18,0.508
2013-07-22 02:13:00,1741E-4,5C000000,-0724,0937,11186,028.0,045.3,0.395,742.5,01.18,0.508
2013-07-22 02:14:00,2211E-4,5C000000,-0724,0936,11306,028.0,045.3,0.394,742.5,01.18,0.508
2013-07-22 02:15:00,1348E-4,5C000000,-0724,0936,11114,028.0,045.3,0.395,742.5,01.18,0.508
2013-07-22 02:16:00,1907E-4,5C000000,-0724,0937,11127,028.0,045.3,0.395,742.5,01.18,0.508
2013-07-22 02:17:00,2827E-4,5C000000,-0724,0936,10957,028.0,045.3,0.394,742.5,01.18,0.508
2013-07-22 02:18:00,1564E-4,5C000000,-0724,0936,11227,028.0,045.3,0.395,742.5,01.18,0.508
2013-07-22 02:19:00,2365E-4,5C000000,-0724,0936,11207,028.0,045.3,0.395,742.5,01.18,0.508
2013-07-22 02:20:00,1990E-4,5C000000,-0724,0936,11132,028.0,045.3,0.395,742.5,01.18,0.508
2013-07-22 02:21:00,2791E-4,5C000000,-0724,0937,11126,028.0,045.3,0.395,742.5,01.18,0.508
2013-07-22 02:22:00,2234E-4,5C000000,-0724,0936,11073,028.0,045.3,0.395,742.5,01.18,0.508
2013-07-22 02:23:00,1923E-4,5C000000,-0724,0936,11121,028.0,045.3,0.395,742.5,01.18,0.508
2013-07-22 02:24:00,1463E-4,5C000000,-0724,0937,11110,028.0,045.3,0.394,742.6,01.18,0.508
2013-07-22 02:25:00,1672E-4,5C000000,-0724,0936,10713,028.0,045.3,0.395,742.6,01.18,0.508
2013-07-22 02:26:00,1926E-4,5C000000,-0724,0936,11269,028.0,045.3,0.395,742.6,01.18,0.508
2013-07-22 02:27:00,1450E-4,5C000000,-0724,0937,11052,028.0,045.3,0.394,742.6,01.18,0.508
2013-07-22 02:28:00,1583E-4,5C000000,-0724,0936,11152,028.1,045.3,0.395,742.6,01.18,0.508
2013-07-22 02:29:00,2275E-4,5C000000,-0724,0936,11101,028.0,045.3,0.395,742.6,01.18,0.508
2013-07-22 02:30:00,1813E-4,5C000000,-0724,0936,11232,028.0,045.3,0.394,742.6,01.18,0.508
2013-07-22 02:31:00,1739E-4,5C000000,-0724,0937,11157,028.0,045.4,0.395,742.6,01.18,0.508
2013-07-22 02:32:00,1744E-4,5C000000,-0724,0937,11209,028.0,045.3,0.395,742.6,01.18,0.508
2013-07-22 02:33:00,1562E-4,5C000000,-0724,0936,11276,028.0,045.3,0.395,742.6,01.18,0.508
2013-07-22 02:34:00,2033E-4,5C000000,-0724,0935,11107,028.1,045.3,0.394,742.6,01.18,0.508
2013-07-22 02:35:00,2041E-4,5C000000,-0724,0936,11102,028.1,045.3,0.395,742.6,01.18,0.508
2013-07-22 02:36:00,1778E-4,5C000000,-0724,0936,11241,028.1,045.3,0.395,742.6,01.18,0.508
2013-07-22 02:37:00,2393E-4,5C000000,-0724,0936,11143,028.0,045.3,0.394,742.6,01.18,0.508
2013-07-22 02:38:00,2094E-4,5C000000,-0724,0936,11138,028.1,045.3,0.395,742.6,01.18,0.508
2013-07-22 02:39:00,2157E-4,5C000000,-0724,0936,11210,028.1,045.3,0.395,742.6,01.18,0.508
2013-07-22 02:40:00,2202E-4,5C000000,-0724,0936,11205,028.1,045.4,0.394,742.6,01.18,0.508
2013-07-22 02:41:00,2158E-4,5C000000,-0724,0936,11189,028.1,045.3,0.395,742.6,01.18,0.508
2013-07-22 02:42:00,1417E-4,5C000000,-0724,0936,11033,028.1,045.3,0.395,742.6,01.18,0.508
2013-07-22 02:43:00,1585E-4,5C000000,-0724,0936,11189,028.1,045.4,0.394,742.6,01.18,0.508
2013-07-22 02:44:00,1668E-4,5C000000,-0724,0936,11186,028.1,045.3,0.395,742.6,01.18,0.508
2013-07-22 02:45:00,1563E-4,5C000000,-0724,0936,11232,028.1,045.3,0.395,742.6,01.18,0.508
2013-07-22 02:46:00,1734E-4,5C000000,-0724,0936,11147,028.1,045.3,0.394,742.7,01.18,0.508
2013-07-22 02:47:00,1749E-4,5C000000,-0724,0936,11064,028.1,045.3,0.395,742.7,01.18,0.508
2013-07-22 02:48:00,1353E-4,5C000000,-0724,0936,11252,028.1,045.3,0.395,742.7,01.18,0.508
2013-07-22 02:49:00,2690E-4,5C000000,-0724,0936,11145,028.1,045.3,0.394,742.7,01.18,0.508
2013-07-22 02:50:00,1965E-4,5C000000,-0724,0936,11132,028.1,045.3,0.394,742.7,01.18,0.508
2013-07-22 02:51:00,1490E-4,5C000000,-0724,0936,11022,028.1,045.3,0.395,742.7,01.18,0.508
2013-07-22 02:52:00,2645E-4,5C000000,-0724,0936,11253,028.1,045.3,0.394,742.7,01.18,0.508
2013-07-22 02:53:00,1799E-4,5C000000,-0724,0936,11200,028.1,045.3,0.395,742.8,01.18,0.508
2013-07-22 02:54:00,1898E-4,5C000000,-0724,0937,11296,028.2,045.3,0.395,742.8,01.18,0.508
2013-07-22 02:55:00,2004E-4,5C000000,-0724,0936,11158,028.2,045.4,0.394,742.8,01.18,0.508
2013-07-22 02:56:00,1810E-4,5C000000,-0724,0935,11284,028.2,045.3,0.395,742.8,01.18,0.508
2013-07-22 02:57:00,2137E-4,5C000000,-0724,0937,10953,028.2,045.3,0.395,742.8,01.18,0.508
2013-07-22 02:58:00,1946E-4,5C000000,-0724,0935,11113,028.2,045.3,0.394,742.8,01.18,0.508
2013-07-22 02:59:00,1309E-4,5C000000,-0724,0936,11181,028.2,045.3,0.395,742.8,01.18,0.508
2013-07-22 03:00:00,2249E-4,5C000000,-0724,0937,11150,028.2,045.3,0.395,742.8,01.18,0.508
2013-07-22 03:01:00,2011E-4,5C000000,-0724,0936,11246,028.2,045.3,0.394,742.8,01.18,0.508
2013-07-22 03:02:00,1922E-4,5C000000,-0724,0936,11131,028.2,045.3,0.395,742.8,01.18,0.508
2013-07-22 03:03:00,1108E-4,5C000000,-0724,0935,11161,028.2,045.3,0.395,742.8,01.18,0.508
2013-07-22 03:04:00,1984E-4,5C000000,-0724,0937,11110,028.2,045.3,0.394,742.8,01.18,0.508
2013-07-22 03:05:00,2554E-4,5C000000,-0724,0936,11185,028.2,045.3,0.395,742.8,01.18,0.508
2013-07-22 03:06:00,1476E-4,5C000000,-0724,0936,11108,028.2,045.3,0.395,742.8,01.18,0.508
2013-07-22 03:07:00,1804E-4,5C000000,-0724,0936,11092,028.2,045.3,0.394,742.8,01.18,0.508
2013-07-22 03:08:00,1598E-4,5C000000,-0724,0936,11068,028.2,045.3,0.395,742.8,01.18,0.508
2013-07-22 03:09:00,1203E-4,5C000000,-0724,0936,11262,028.2,045.3,0.394,742.8,01.18,0.508
2013-07-22 03:10:00,1589E-4,5C000000,-0724,0936,10952,028.2,045.3,0.394,742.8,01.18,0.508
2013-07-22 03:11:00,1883E-4,5C000000,-0724,0936,11118,028.2,045.3,0.395,742.8,01.18,0.508
2013-07-22 03:12:00,1785E-4,5C000000,-0724,0937,11143,028.2,045.3,0.394,742.7,01.18,0.508
2013-07-22 03:13:00,1790E-4,5C000000,-0724,0936,11101,028.2,045.3,0.394,742.8,01.18,0.508
2013-07-22 03:14:00,1599E-4,5C000000,-0724,0936,11033,028.2,045.3,0.395,742.8,01.18,0.508
2013-07-22 03:15:00,1444E-4,5C000000,-0724,0935,11093,028.2,045.3,0.394,742.7,01.18,0.508
2013-07-22 03:16:00,1572E-4,5C000000,-0724,0936,11182,028.2,045.4,0.394,742.7,01.18,0.508
2013-07-22 03:17:00,2369E-4,5C000000,-0724,0936,11312,028.2,045.3,0.395,742.7,01.18,0.508
2013-07-22 03:18:00,1866E-4,5C000000,-0724,0935,11023,028.2,045.3,0.394,742.7,01.18,0.508
2013-07-22 03:19:00,1191E-4,5C000000,-0724,0936,11194,028.2,045.3,0.394,742.8,01.18,0.508
2013-07-22 03:20:00,1138E-4,5C000000,-0724,0936,11291,028.2,045.3,0.395,742.8,01.18,0.508
2013-07-22 03:21:00,1714E-4,5C000000,-0724,0937,11271,028.2,045.3,0.394,742.8,01.18,0.508
2013-07-22 03:22:00,2228E-4,5C000000,-0724,0936,11108,028.2,045.3,0.395,742.8,01.18,0.508
2013-07-22 03:23:00,1751E-4,5C000000,-0724,0937,11121,028.3,045.3,0.395,742.8,01.18,0.508
2013-07-22 03:24:00,1721E-4,5C000000,-0724,0938,10940,028.3,045.3,0.394,742.8,01.18,0.508
2013-07-22 03:25:00,1974E-4,5C000000,-0724,0937,11159,028.3,045.4,0.395,742.8,01.18,0.508
2013-07-22 03:26:00,1806E-4,5C000000,-0724,0936,11197,028.3,045.3,0.394,742.8,01.18,0.508
2013-07-22 03:27:00,1077E-4,5C000000,-0724,0937,11171,028.3,045.3,0.394,742.8,01.18,0.508
2013-07-22 03:28:00,1065E-4,5C000000,-0724,0936,11183,028.3,045.4,0.395,742.8,01.18,0.508
2013-07-22 03:29:00,1621E-4,5C000000,-0724,0936,11165,028.3,045.4,0.394,742.8,01.18,0.508
2013-07-22 03:30:00,2324E-4,5C000000,-0724,0936,11165,028.3,045.3,0.394,742.9,01.18,0.508
2013-07-22 03:31:00,1410E-4,5C000000,-0724,0937,11092,028.3,045.3,0.395,742.8,01.18,0.508
2013-07-22 03:32:00,1623E-4,5C000000,-0724,0936,10989,028.3,045.3,0.394,742.9,01.18,0.508
2013-07-22 03:33:00,1837E-4,5C000000,-0724,0937,11033,028.3,045.3,0.394,742.9,01.18,0.508
2013-07-22 03:34:00,2066E-4,5C000000,-0724,0937,11267,028.3,045.3,0.394,742.9,01.18,0.508
2013-07-22 03:35:00,1192E-4,5C000000,-0724,0936,11150,028.3,045.3,0.394,742.9,01.18,0.508
2013-07-22 03:36:00,1860E-4,5C000000,-0724,0936,11210,028.3,045.3,0.395,742.9,01.18,0.508
2013-07-22 03:37:00,2455E-4,5C000000,-0724,0936,11071,028.3,045.4,0.394,742.9,01.18,0.508
2013-07-22 03:38:00,1638E-4,5C000000,-0724,0935,11236,028.3,045.3,0.394,742.9,01.18,0.508
2013-07-22 03:39:00,1364E-4,5C000000,-0724,0936,11312,028.4,045.3,0.395,742.9,01.18,0.508
2013-07-22 03:40:00,3001E-4,5C000000,-0724,0936,11129,028.4,045.4,0.394,743.0,01.18,0.508
2013-07-22 03:41:00,1219E-4,5C000000,-0724,0936,11234,028.4,045.3,0.395,743.0,01.18,0.508
2013-07-22 03:42:00,1939E-4,5C000000,-0724,0936,11196,028.4,045.4,0.394,743.0,01.18,0.508
2013-07-22 03:43:00,2109E-4,5C000000,-0724,0936,11049,028.4,045.4,0.394,743.0,01.18,0.508
2013-07-22 03:44:00,1492E-4,5C000000,-0724,0936,11193,028.4,045.3,0.395,743.0,01.18,0.508
2013-07-22 03:45:00,6772E-5,5C000000,-0724,0937,11199,028.4,045.3,0.394,743.0,01.18,0.508
2013-07-22 03:46:00,1841E-4,5C000000,-0724,0937,11147,028.4,045.3,0.394,743.0,01.18,0.508
2013-07-22 03:47:00,1652E-4,5C000000,-0724,0937,11088,028.4,045.4,0.394,743.0,01.18,0.508
2013-07-22 03:48:00,1290E-4,5C000000,-0724,0937,11197,028.4,045.4,0.394,743.0,01.18,0.508
2013-07-22 03:49:00,2695E-4,5C000000,-0724,0936,11171,028.4,045.4,0.395,743.0,01.18,0.508
2013-07-22 03:50:00,1649E-4,5C000000,-0724,0936,11114,028.4,045.4,0.394,743.0,01.18,0.508
2013-07-22 03:51:00,1264E-4,5C000000,-0724,0936,11087,028.4,045.4,0.394,743.0,01.18,0.508
2013-07-22 03:52:00,1883E-4,5C000000,-0724,0938,11229,028.4,045.3,0.394,743.0,01.18,0.508
2013-07-22 03:53:00,2226E-4,5C000000,-0724,0937,11127,028.4,045.3,0.394,743.0,01.18,0.508
2013-07-22 03:54:00,1629E-4,5C000000,-0724,0937,11068,028.4,045.4,0.395,743.0,01.18,0.508
2013-07-22 03:55:00,8420E-5,5C000000,-0724,0936,11182,028.4,045.4,0.394,743.0,01.18,0.508
2013-07-22 03:56:00,1705E-4,5C000000,-0724,0936,11157,028.4,045.4,0.394,743.0,01.18,0.508
2013-07-22 03:57:00,1110E-4,5C000000,-0724,0936,11196,028.4,045.3,0.394,743.0,01.18,0.508
2013-07-22 03:58:00,2198E-4,5C000000,-0724,0936,11073,028.4,045.4,0.394,743.0,01.18,0.508
2013-07-22 03:59:00,2704E-4,5C000000,-0724,0937,11084,028.4,045.4,0.394,743.0,01.18,0.508
2013-07-22 04:00:00,1025E-4,5C000000,-0724,0937,11235,028.5,045.4,0.394,743.0,01.18,0.508
2013-07-22 04:01:00,2735E-4,5C000000,-0724,0937,11187,028.5,045.3,0.395,743.0,01.18,0.508
2013-07-22 04:02:00,1765E-4,5C000000,-0724,0937,11152,028.5,045.4,0.394,743.1,01.18,0.508
2013-07-22 04:03:00,1642E-4,5C000000,-0724,0937,11214,028.5,045.4,0.394,743.0,01.18,0.508
2013-07-22 04:04:00,1686E-4,5C000000,-0724,0938,11145,028.5,045.3,0.394,743.1,01.18,0.508
2013-07-22 04:05:00,1199E-4,5C000000,-0724,0936,11178,028.5,045.4,0.394,743.1,01.18,0.508
2013-07-22 04:06:00,1985E-4,5C000000,-0724,0936,11368,028.5,045.4,0.394,743.1,01.18,0.508
2013-07-22 04:07:00,1700E-4,5C000000,-0724,0936,11052,028.5,045.4,0.394,743.1,01.18,0.508
2013-07-22 04:08:00,1789E-4,5C000000,-0724,0936,11246,028.5,045.3,0.394,743.1,01.18,0.508
2013-07-22 04:09:00,1823E-4,5C000000,-0724,0936,11174,028.5,045.3,0.394,743.1,01.18,0.508
2013-07-22 04:10:00,1841E-4,5C000000,-0724,0935,11256,028.5,045.3,0.394,743.1,01.18,0.508
2013-07-22 04:11:00,2203E-4,5C000000,-0724,0936,11224,028.5,045.4,0.394,743.2,01.18,0.508
2013-07-22 04:12:00,1514E-4,5C000000,-0724,0936,11122,028.5,045.3,0.394,743.1,01.18,0.508
2013-07-22 04:13:00,2612E-4,5C000000,-0724,0935,11239,028.5,045.3,0.394,743.1,01.18,0.508
2013-07-22 04:14:00,9049E-5,5C000000,-0724,0936,11147,028.5,045.4,0.394,743.1,01.18,0.508
2013-07-22 04:15:00,1595E-4,5C000000,-0724,0937,11171,028.5,045.3,0.394,743.1,01.18,0.508
2013-07-22 04:16:00,2023E-4,5C000000,-0724,0936,11210,028.5,045.3,0.394,743.1,01.18,0.508
2013-07-22 04:17:00,1988E-4,5C000000,-0724,0935,11253,028.5,045.3,0.394,743.1,01.18,0.508
2013-07-22 04:18:00,1938E-4,5C000000,-0724,0937,11190,028.5,045.3,0.394,743.1,01.18,0.508
2013-07-22 04:19:00,1789E-4,5C000000,-0724,0937,11337,028.5,045.4,0.394,743.2,01.18,0.508
2013-07-22 04:20:00,1445E-4,5C000000,-0724,0936,11093,028.5,045.4,0.394,743.1,01.18,0.508